{"data":{"norad_id":59911,"intl_designator":"2024-102C","name":"TIANQI-27","alt_names":[],"object_type":"PAYLOAD","status":"ACTIVE","operator":null,"country":"PRC","launch_date":"2024-05-29","launch_site_code":"YSLA","launch_vehicle":null,"mission":null,"orbit_class":"UNKNOWN","rcs_meters":null,"size_class":null,"mass_kg":null,"dimensions":null,"purposes":[],"wikipedia_slug":null,"has_3d_model":false,"image_url":null,"decayed_at":null,"tle_current":{"epoch":"2026-09-22T20:48:59.703552Z","epoch_age_seconds":71007,"freshness":"FRESH","line1":"1 59911U 24102C   26265.86735768  .00000016  00000+0  99378-4 0  9991","line2":"2 59911  44.9774 186.7973 0008114 350.1224   9.9448 13.99177901118588","mean_motion":13.99177901,"eccentricity":0.0008114,"inclination_deg":44.9774,"raan_deg":186.7973,"arg_perigee_deg":350.1224,"mean_anomaly_deg":9.9448,"bstar":9.9378e-5,"rev_number":11858,"period_min":102.91757745536,"perigee_km":890.74056254989,"apogee_km":902.54607605205,"semimajor_km":7274.780319301,"source":"CELESTRAK","updated_at":"2026-09-23T09:00:19.772024Z"}}}